Total_Precipitation_Accumulation
0.03 0.03 0.04 0.05 0.07 0.09 0.11 0.11 0.12 0.12 0.13 0.14 0.15 0.16 0.18 0.19 0.20 0.21 0.23 0.25 0.28 0.31 0.35 0.40 0.44 0.46 0.50 0.51 0.55 0.59 0.65 0.73 0.73 0.53 0.43 0.42 0.39 0.34 0.31 0.29 0.25 0.24 0.22
0.02 0.03 0.04 0.05 0.06 0.07 0.08 0.09 0.10 0.09 0.10 0.11 0.12 0.11 0.11 0.12 0.13 0.14 0.17 0.20 0.24 0.28 0.32 0.36 0.41 0.44 0.48 0.49 0.51 0.52 0.53 0.55 0.63 0.56 0.40 0.36 0.33 0.32 0.33 0.31 0.26 0.23 0.20
0.04 0.04 0.04 0.05 0.06 0.06 0.06 0.06 0.06 0.07 0.07 0.07 0.08 0.09 0.10 0.10 0.11 0.12 0.15 0.17 0.20 0.23 0.26 0.30 0.34 0.37 0.39 0.37 0.36 0.37 0.39 0.43 0.49 0.52 0.40 0.34 0.30 0.28 0.29 0.27 0.24 0.21 0.19
0.07 0.06 0.06 0.06 0.06 0.06 0.06 0.06 0.05 0.05 0.05 0.05 0.05 0.06 0.07 0.09 0.12 0.14 0.17 0.20 0.21 0.22 0.24 0.26 0.27 0.27 0.27 0.26 0.27 0.29 0.34 0.39 0.42 0.46 0.44 0.35 0.32 0.27 0.28 0.23 0.21 0.19 0.19
0.11 0.10 0.08 0.08 0.08 0.07 0.07 0.07 0.06 0.05 0.06 0.08 0.09 0.10 0.10 0.11 0.14 0.17 0.18 0.21 0.22 0.23 0.22 0.21 0.20 0.21 0.21 0.21 0.24 0.28 0.35 0.41 0.49 0.54 0.52 0.44 0.37 0.30 0.26 0.26 0.31 0.30 0.28
0.12 0.12 0.11 0.10 0.09 0.09 0.09 0.09 0.08 0.08 0.09 0.11 0.14 0.16 0.18 0.19 0.25 0.23 0.20 0.21 0.23 0.22 0.21 0.19 0.19 0.20 0.18 0.19 0.21 0.29 0.42 0.54 0.65 0.69 0.66 0.55 0.41 0.35 0.34 0.40 0.48 0.56 0.50
0.13 0.13 0.12 0.11 0.12 0.13 0.12 0.13 0.16 0.19 0.20 0.20 0.20 0.22 0.25 0.30 0.31 0.25 0.21 0.18 0.18 0.17 0.16 0.15 0.14 0.13 0.14 0.12 0.16 0.26 0.35 0.44 0.52 0.55 0.53 0.42 0.37 0.36 0.49 0.65 0.68 0.72 0.59
0.12 0.13 0.13 0.14 0.16 0.18 0.20 0.22 0.23 0.25 0.27 0.28 0.28 0.25 0.24 0.25 0.24 0.19 0.16 0.14 0.14 0.13 0.11 0.10 0.10 0.10 0.10 0.14 0.21 0.28 0.23 0.20 0.24 0.29 0.33 0.34 0.37 0.44 0.61 0.85 0.92 0.90 0.71
0.17 0.21 0.21 0.23 0.24 0.26 0.29 0.31 0.32 0.33 0.33 0.30 0.27 0.26 0.25 0.23 0.19 0.14 0.12 0.10 0.10 0.09 0.07 0.07 0.08 0.07 0.09 0.22 0.33 0.35 0.24 0.14 0.16 0.24 0.33 0.36 0.37 0.40 0.48 0.75 0.94 1.00 0.84
0.22 0.28 0.28 0.29 0.33 0.34 0.34 0.33 0.30 0.30 0.30 0.28 0.25 0.21 0.18 0.17 0.16 0.12 0.09 0.08 0.08 0.07 0.07 0.06 0.07 0.08 0.15 0.27 0.32 0.33 0.27 0.18 0.22 0.25 0.26 0.27 0.26 0.30 0.39 0.58 1.01 1.41 1.19
0.25 0.28 0.26 0.25 0.27 0.27 0.27 0.26 0.25 0.24 0.22 0.20 0.18 0.16 0.13 0.10 0.08 0.07 0.07 0.08 0.09 0.11 0.09 0.06 0.06 0.13 0.22 0.26 0.24 0.20 0.26 0.33 0.29 0.26 0.28 0.30 0.31 0.33 0.37 0.48 0.79 1.43 1.68
0.21 0.22 0.22 0.22 0.21 0.20 0.19 0.20 0.19 0.18 0.16 0.13 0.11 0.10 0.08 0.05 0.04 0.03 0.04 0.08 0.12 0.12 0.09 0.06 0.07 0.15 0.16 0.13 0.11 0.16 0.29 0.30 0.23 0.31 0.37 0.38 0.38 0.41 0.46 0.54 0.63 0.81 1.10
0.18 0.19 0.18 0.15 0.14 0.14 0.12 0.12 0.11 0.09 0.08 0.06 0.05 0.04 0.03 0.03 0.02 0.03 0.04 0.08 0.11 0.10 0.08 0.11 0.12 0.11 0.08 0.06 0.10 0.15 0.16 0.15 0.26 0.46 0.53 0.53 0.55 0.61 0.66 0.68 0.65 0.65 0.68
0.14 0.14 0.13 0.11 0.09 0.08 0.07 0.06 0.05 0.05 0.04 0.03 0.02 0.02 0.02 0.02 0.01 0.02 0.05 0.06 0.07 0.08 0.09 0.09 0.06 0.04 0.05 0.06 0.10 0.10 0.09 0.16 0.38 0.57 0.62 0.60 0.62 0.67 0.74 0.82 0.89 0.85 0.82
0.08 0.08 0.07 0.06 0.05 0.05 0.04 0.03 0.03 0.02 0.02 0.02 0.02 0.02 0.02 0.02 0.03 0.09 0.11 0.09 0.11 0.12 0.11 0.04 0.03 0.03 0.04 0.06 0.09 0.10 0.11 0.19 0.31 0.42 0.56 0.61 0.61 0.66 0.75 0.85 0.95 0.94 0.88
0.04 0.04 0.04 0.03 0.03 0.03 0.02 0.02 0.03 0.02 0.02 0.02 0.02 0.02 0.03 0.04 0.07 0.09 0.10 0.12 0.13 0.12 0.09 0.04 0.05 0.07 0.10 0.13 0.15 0.15 0.16 0.23 0.38 0.53 0.63 0.72 0.81 0.87 0.92 0.92 0.92 0.88 0.77
0.03 0.03 0.03 0.02 0.02 0.02 0.02 0.02 0.02 0.02 0.02 0.02 0.02 0.02 0.03 0.05 0.06 0.07 0.10 0.11 0.07 0.08 0.08 0.09 0.13 0.16 0.19 0.21 0.23 0.27 0.31 0.36 0.55 0.73 0.83 0.89 0.99 1.02 1.01 0.93 0.79 0.66 0.51
0.03 0.03 0.03 0.02 0.02 0.02 0.02 0.02 0.02 0.02 0.02 0.01 0.02 0.02 0.03 0.04 0.05 0.07 0.10 0.06 0.03 0.06 0.12 0.18 0.23 0.26 0.26 0.28 0.33 0.41 0.49 0.54 0.66 0.80 0.90 0.98 1.11 1.16 1.01 0.81 0.63 0.50 0.39
0.03 0.03 0.03 0.03 0.03 0.03 0.03 0.03 0.03 0.03 0.03 0.02 0.02 0.02 0.03 0.04 0.05 0.06 0.05 0.03 0.05 0.08 0.13 0.20 0.25 0.28 0.30 0.33 0.39 0.50 0.64 0.77 0.85 0.97 1.02 1.10 1.16 1.09 0.85 0.58 0.39 0.24 0.22
0.03 0.05 0.05 0.04 0.04 0.04 0.04 0.04 0.04 0.04 0.04 0.04 0.03 0.03 0.04 0.07 0.07 0.03 0.03 0.03 0.05 0.07 0.10 0.15 0.19 0.24 0.31 0.40 0.48 0.61 0.77 0.86 0.95 1.03 1.10 1.11 0.99 0.84 0.64 0.39 0.27 0.26 0.22
0.05 0.06 0.07 0.05 0.04 0.04 0.05 0.05 0.06 0.06 0.07 0.05 0.04 0.05 0.10 0.11 0.07 0.04 0.04 0.05 0.05 0.07 0.10 0.15 0.19 0.25 0.35 0.47 0.59 0.67 0.79 0.89 1.02 1.11 1.08 0.93 0.74 0.54 0.35 0.30 0.28 0.28 0.27
0.07 0.07 0.08 0.07 0.06 0.06 0.08 0.08 0.08 0.08 0.07 0.06 0.05 0.06 0.10 0.08 0.05 0.05 0.05 0.04 0.04 0.05 0.08 0.14 0.18 0.25 0.45 0.72 0.93 1.00 0.92 0.90 0.94 0.99 0.90 0.69 0.50 0.37 0.31 0.30 0.29 0.29 0.29
0.08 0.09 0.09 0.09 0.09 0.11 0.12 0.10 0.09 0.09 0.08 0.07 0.07 0.07 0.08 0.08 0.07 0.06 0.05 0.05 0.05 0.06 0.07 0.12 0.19 0.23 0.39 0.71 1.03 1.35 1.42 1.24 1.10 1.05 1.00 0.78 0.53 0.42 0.41 0.40 0.35 0.32 0.27
0.09 0.11 0.12 0.12 0.13 0.13 0.12 0.11 0.11 0.10 0.10 0.10 0.09 0.09 0.08 0.08 0.08 0.07 0.06 0.06 0.07 0.07 0.08 0.13 0.20 0.28 0.42 0.72 1.00 1.18 1.33 1.40 1.42 1.30 1.15 0.99 0.71 0.51 0.44 0.39 0.31 0.27 0.25
0.12 0.13 0.14 0.13 0.14 0.13 0.13 0.13 0.13 0.12 0.12 0.12 0.11 0.11 0.09 0.08 0.08 0.07 0.07 0.07 0.08 0.07 0.07 0.11 0.21 0.34 0.51 0.73 0.97 1.13 1.17 1.17 1.07 0.97 0.84 0.70 0.56 0.43 0.40 0.37 0.31 0.26 0.23
0.14 0.14 0.14 0.14 0.13 0.13 0.14 0.14 0.14 0.14 0.14 0.13 0.13 0.12 0.11 0.10 0.09 0.08 0.08 0.09 0.10 0.09 0.08 0.10 0.17 0.34 0.54 0.74 0.89 1.06 1.08 0.91 0.64 0.48 0.49 0.53 0.48 0.38 0.36 0.37 0.32 0.28 0.26